Regional Weather Roundup
Issued by NWS Goodland, KS

Home | Current Version | Previous Version | Graphics & Text | Print | Product List | Glossary On
Versions: 1 2 3 4 5 6 7 8 9 10 11 12 13 14 15 16 17 18 19 20 21 22 23 24 25 26 27 28 29 30 31 32 33 34 35 36 37 38 39 40 41 42 43 44 45 46 47 48 49 50
000
ASUS43 KGLD 241208
RWRGLD

GOODLAND FORECAST AREA HOURLY WEATHER ROUNDUP
NATIONAL WEATHER SERVICE GOODLAND KS
600 AM MDT TUE APR 24 2018

...OFFICIAL OBSERVATIONS...

CITY           SKY/WX    TMP DP  RH WIND       PRES   REMARKS
GOODLAND KS    CLOUDY    39  37  92 N21G31    30.25R
HILL CITY KS   CLOUDY    54  46  74 NW18G28   30.19R
IMPERIAL NEB   LGT RAIN  40  39  97 NW17G29   30.28R
MCCOOK NEB     RAIN      45  42  89 NW16      30.22S FOG
AKRON CO       FLURRIES  34  32  92 N26G36    30.32R
BURLINGTON CO  CLOUDY    38  36  92 N18G32    30.29R
LIMON CO       MIX PCPN  32  31  96 N20G30    30.32R
$$

...UNOFFICIAL OBSERVATIONS...

CITY           SKY/WX    TMP DP  RH WIND       PRES   REMARKS
COLBY KS       DRIZZLE   41  41 100 NW22      30.24R
NORTON KS      CLOUDY    50  43  76 W23G30    30.19
KIT CARSON CO    N/A     38  33  83 MISG        N/A
YUMA CO        DRIZZLE   34  32  93 NW17G23   30.31R
$$



USA.gov is the U.S. government's official web portal to all federal, state and local government web resources and services.